AirNav   TITAN Aviation Fuels
 
 1814 users online  

MU58 VA Medical Center Heliport
Kansas City, Missouri, USA

GOING TO KANSAS CITY?


FAA INFORMATION EFFECTIVE 08 SEPTEMBER 2022

Location

FAA Identifier: MU58
Lat/Long: 39-03-51.0180N 094-31-31.8350W
39-03.850300N 094-31.530583W
39.0641717,-94.5255097
(estimated)
Elevation: 941 ft. / 287 m (estimated)
Variation: 05E (1985)
Time zone: UTC -5 (UTC -6 during Standard Time)
Zip code: 64128

Heliport Operations

Heliport use: Private use, MEDICAL.
Activation date: 07/1985
Control tower: no
ARTCC: KANSAS CITY CENTER
FSS: COLUMBIA FLIGHT SERVICE STATION
Attendance: UNATNDD
Wind indicator: lighted
Segmented circle: no
Lights: FOR PERIMETER LGTS CALL 816-861-4700.

Heliport Communications

WX ASOS at MKC (5 nm NW): 120.75 (816-329-2843)
WX ASOS at LXT (10 nm SE): 124.175 (816-347-9807)
WX ASOS at OJC (16 nm SW): PHONE 913-780-6969
WX ASOS at MCI (17 nm NW): PHONE 816-329-2808
WX AWOS-3T at GPH (19 nm NE): 120.275 (816-407-3399)

Nearby radio navigation aids

VOR radial/distance  VOR name  Freq  Var
MCIr138/16.5KANSAS CITY VORTAC113.2505E
ANXr257/18.6NAPOLEON VORTAC114.0007E

Heliport Services

Runway Information

Helipad H1

Dimensions: 60 x 60 ft. / 18 x 18 m
Surface: concrete
Operational restrictions: NORTH/SOUTH INGRESS & ROUTES ENGRESS.
Latitude: 39-03.850300N
Longitude: 094-31.530583W
Elevation: 941.0 ft.
Traffic pattern: leftleft

Heliport Ownership and Management from official FAA records

Ownership: Publicly-owned
Owner: DEPT OF VETERANS AFFAIRS
4801 LINWOOD BLVD.
KANSAS CITY, MO 64128
Phone 816-861-4700
Manager: KENT HILL
4801 LINWOOD BLVD.
KANSAS CITY, MO 64128
Phone 816-861-4700

Additional Remarks

A40 HELIPAD LIGHTED WITH PERIMETER LIGHTS.
FOR CD CTC KANSAS CITY APCH AT 816-329-2710.

Instrument Procedures

There are no published instrument procedures at MU58.

Some nearby airports with instrument procedures:

KMKC - Charles B Wheeler Downtown Airport (5 nm NW)
KLXT - Lee's Summit Municipal Airport (10 nm SE)
3GV - East Kansas City Airport (15 nm E)
KOJC - Johnson County Executive Airport (16 nm SW)
KMCI - Kansas City International Airport (17 nm NW)
KGPH - Midwest National Air Center Airport (19 nm NE)
 
Loc | Ops | Rwys | IFR | FBO | Links
Com | Nav | Svcs | Stats | Notes
Area around MU58 (VA Medical Center Heliport)
 
Road maps at: MapQuest Bing Google
 
Aerial photo
No photo
 
Sectional chart

 
Airport distance calculator
Flying to VA Medical Center Heliport? Find the distance to fly.

From to MU58

Sunrise and sunset
Times for 04-Oct-2022
 Local
(UTC-5)
 Zulu
(UTC)
Morning civil twilight06:5111:51
Sunrise07:1812:18
Sunset18:5623:56
Evening civil twilight19:2200:22

Current date and time
Zulu (UTC)  04-Oct-2022 16:50:05
Local (UTC-5)  04-Oct-2022 11:50:05
 
METAR
KMKC 
5nm NW 
041554Z VRB05KT 10SM CLR 22/07 A3017 RMK AO2 SLP212 T02170072
KLXT 
9nm SE 
041553Z AUTO 20008KT 10SM CLR 22/07 A3019 RMK AO2 SLP219 T02170067
KGVW 
14nm S 
041630Z AUTO 06007KT 10SM CLR 25/19 A3009 RMK A01
KOJC 
16nm SW 
041553Z 17007KT 10SM CLR 22/09 A3018 RMK AO2 SLP212 T02170089
KMCI 
17nm NW 
041553Z 19009KT 9SM SCT160 BKN250 23/08 A3018 RMK AO2 SLP210 T02280083 $
KGPH 
19nm NE 
041635Z AUTO 17004KT 10SM CLR 21/06 A3019 RMK AO2
TAF
KMKC 
5nm NW 
041120Z 0412/0512 16008KT P6SM FEW250
KMCI 
17nm NW 
041120Z 0412/0512 16008KT P6SM FEW250
NOTAMs
Click for the latest NOTAMs
NOTAMs are issued by the DoD/FAA and will open in a separate window not controlled by AirNav.

 

 
 

Would you like to see your business listed on this page?

 If your business provides an interesting product or service to pilots, flight crews, aircraft, or users of the VA Medical Center Heliport, you should consider listing it here.  To start the listing process, click on the button below
 
Add a business
 

Other Pages about VA Medical Center Heliport

Update a link
 
Copyright © AirNav, LLC. All rights reserved. Privacy Policy  Contact